EZY92QG EGKK-LEPA

Flight info

Callsign EZY92QG
Flight time 2h 4m
Altitude 39000
Route SFD Y47 DRAKE/N0416F330 L151 SITET UN859 SOPIL DCT BALAN DCT EVPOK DCT NARAK DCT GAI DCT LOMRA DCT ROCAN DCT IBRAP DCT LUKEV DCT LORES
Aircraft A20N/M-SDE2E3FGHIJ1RWXYZ/LB1

Departure

Time 2026-05-04 20:04
Airport London Gatwick Airport (EGKK)

Arrival

Time 2026-05-04 22:08
Airport Palma de Mallorca Airport (LEPA)
Time Latitude Longitude Altitude Speed Heading
2026-05-04 19:05 51.15661 -0.17699 216 ft 0 kts 167°
2026-05-04 19:46 51.15678 -0.17705 216 ft 3 kts 167°
2026-05-04 19:47 51.15697 -0.17712 211 ft 3 kts 167°
2026-05-04 19:47 51.15715 -0.17715 208 ft 3 kts 199°
2026-05-04 19:47 51.15731 -0.17703 219 ft 3 kts 223°
2026-05-04 19:47 51.15738 -0.17688 215 ft 0 kts 257°
2026-05-04 19:50 51.15738 -0.17689 215 ft 1 kts 257°
2026-05-04 19:51 51.15733 -0.17723 208 ft 5 kts 257°
2026-05-04 19:51 51.15723 -0.17792 208 ft 8 kts 257°
2026-05-04 19:51 51.15708 -0.17891 208 ft 10 kts 256°
2026-05-04 19:51 51.15689 -0.18016 217 ft 13 kts 256°
2026-05-04 19:52 51.15672 -0.18157 212 ft 14 kts 259°
2026-05-04 19:52 51.15650 -0.18315 213 ft 15 kts 250°
2026-05-04 19:52 51.15576 -0.18344 214 ft 13 kts 165°
2026-05-04 19:52 51.15484 -0.18312 211 ft 15 kts 169°
2026-05-04 19:53 51.15378 -0.18278 208 ft 16 kts 167°
2026-05-04 19:53 51.15261 -0.18236 208 ft 18 kts 167°
2026-05-04 19:53 51.15184 -0.18331 214 ft 17 kts 258°
2026-05-04 19:53 51.15158 -0.18522 216 ft 19 kts 258°
2026-05-04 19:54 51.15129 -0.18734 218 ft 21 kts 257°
2026-05-04 19:54 51.15097 -0.18965 218 ft 22 kts 257°
2026-05-04 19:54 51.15064 -0.19210 210 ft 23 kts 258°
2026-05-04 19:54 51.15029 -0.19471 210 ft 25 kts 258°
2026-05-04 19:55 51.14993 -0.19744 208 ft 26 kts 257°
2026-05-04 19:55 51.14952 -0.20032 216 ft 27 kts 257°
2026-05-04 19:55 51.14913 -0.20315 216 ft 24 kts 256°
2026-05-04 19:55 51.14876 -0.20569 214 ft 23 kts 255°
2026-05-04 19:56 51.14771 -0.20735 213 ft 22 kts 244°
2026-05-04 19:56 51.14732 -0.20963 211 ft 19 kts 257°
2026-05-04 19:56 51.14710 -0.21116 216 ft 14 kts 257°
2026-05-04 19:56 51.14697 -0.21208 216 ft 0 kts 257°
2026-05-04 19:58 51.14693 -0.21235 215 ft 6 kts 257°
2026-05-04 19:58 51.14667 -0.21330 218 ft 12 kts 213°
2026-05-04 19:58 51.14618 -0.21329 211 ft 0 kts 165°
2026-05-04 20:02 51.14616 -0.21329 208 ft 2 kts 165°
2026-05-04 20:02 51.14561 -0.21302 211 ft 12 kts 153°
2026-05-04 20:03 51.14521 -0.21173 211 ft 15 kts 78°
2026-05-04 20:03 51.14547 -0.20985 213 ft 20 kts 78°
2026-05-04 20:03 51.14578 -0.20754 212 ft 22 kts 77°
2026-05-04 20:03 51.14627 -0.20414 216 ft 57 kts 78°
2026-05-04 20:04 51.14757 -0.19463 220 ft 119 kts 78°
2026-05-04 20:04 51.14970 -0.17885 249 ft 165 kts 77°
2026-05-04 20:04 51.15179 -0.16110 860 ft 160 kts 79°
2026-05-04 20:04 51.15417 -0.14297 1349 ft 174 kts 76°
2026-05-04 20:05 51.15702 -0.12355 1892 ft 182 kts 75°
2026-05-04 20:05 51.15973 -0.10424 2762 ft 176 kts 78°
2026-05-04 20:05 51.16023 -0.08456 3426 ft 186 kts 96°
2026-05-04 20:05 51.15487 -0.06446 3654 ft 215 kts 127°
2026-05-04 20:06 51.14156 -0.05020 3864 ft 251 kts 160°
2026-05-04 20:06 51.12405 -0.04337 4530 ft 265 kts 168°
2026-05-04 20:06 51.10571 -0.03781 5337 ft 270 kts 168°
2026-05-04 20:06 51.08740 -0.03094 5831 ft 271 kts 164°
2026-05-04 20:07 51.06918 -0.02294 5991 ft 273 kts 163°
2026-05-04 20:07 51.05091 -0.01450 6004 ft 274 kts 163°
2026-05-04 20:07 51.03264 -0.00593 6006 ft 274 kts 163°
2026-05-04 20:07 51.01435 0.00268 6016 ft 274 kts 163°
2026-05-04 20:08 50.99626 0.01121 6020 ft 276 kts 163°
2026-05-04 20:08 50.97788 0.01989 6021 ft 276 kts 163°
2026-05-04 20:08 50.95949 0.02856 6017 ft 275 kts 163°
2026-05-04 20:08 50.94116 0.03720 6017 ft 275 kts 163°
2026-05-04 20:09 50.92281 0.04585 6020 ft 276 kts 163°
2026-05-04 20:09 50.90438 0.05453 6018 ft 276 kts 163°
2026-05-04 20:09 50.88601 0.06318 6017 ft 276 kts 163°
2026-05-04 20:09 50.86761 0.07182 6011 ft 275 kts 163°
2026-05-04 20:10 50.84926 0.08043 6013 ft 276 kts 163°
2026-05-04 20:10 50.83683 0.08626 6011 ft 276 kts 163°
2026-05-04 20:10 50.81842 0.09487 6011 ft 276 kts 162°
2026-05-04 20:10 50.79998 0.10350 6011 ft 276 kts 162°
2026-05-04 20:11 50.78158 0.11211 6013 ft 277 kts 162°
2026-05-04 20:11 50.76275 0.11858 6031 ft 277 kts 177°
2026-05-04 20:11 50.74350 0.11717 6511 ft 278 kts 187°
2026-05-04 20:11 50.72461 0.11199 7386 ft 279 kts 192°
2026-05-04 20:12 50.70549 0.10490 8342 ft 279 kts 194°
2026-05-04 20:12 50.68660 0.09720 9221 ft 282 kts 194°
2026-05-04 20:12 50.66748 0.08936 10075 ft 285 kts 193°
2026-05-04 20:12 50.64773 0.08150 10550 ft 303 kts 193°
2026-05-04 20:13 50.62649 0.07338 10858 ft 324 kts 192°
2026-05-04 20:13 50.60413 0.06512 11441 ft 335 kts 192°
2026-05-04 20:13 50.58124 0.05682 12213 ft 340 kts 192°
2026-05-04 20:13 50.55802 0.04846 13011 ft 344 kts 192°
2026-05-04 20:14 50.53483 0.04014 13796 ft 349 kts 192°
2026-05-04 20:14 50.51103 0.03162 14514 ft 353 kts 192°
2026-05-04 20:14 50.48699 0.02300 15258 ft 356 kts 192°
2026-05-04 20:14 50.46275 0.01431 15993 ft 359 kts 192°
2026-05-04 20:15 50.43832 0.00555 16741 ft 362 kts 192°
2026-05-04 20:15 50.41364 -0.00328 17470 ft 365 kts 191°
2026-05-04 20:15 50.38870 -0.01221 18177 ft 369 kts 191°
2026-05-04 20:15 50.36357 -0.02120 18809 ft 372 kts 191°
2026-05-04 20:16 50.33832 -0.03021 19475 ft 373 kts 191°
2026-05-04 20:16 50.31296 -0.03927 20136 ft 374 kts 191°
2026-05-04 20:16 50.28749 -0.04835 20804 ft 376 kts 191°
2026-05-04 20:16 50.26194 -0.05744 21447 ft 378 kts 192°
2026-05-04 20:17 50.23605 -0.06440 22078 ft 378 kts 184°
2026-05-04 20:17 50.20972 -0.06452 22685 ft 380 kts 174°
2026-05-04 20:17 50.18381 -0.05615 23275 ft 382 kts 163°
2026-05-04 20:17 50.15868 -0.04238 23817 ft 384 kts 159°
2026-05-04 20:18 50.13398 -0.02630 24271 ft 386 kts 157°
2026-05-04 20:18 50.10926 -0.00957 24727 ft 388 kts 159°
2026-05-04 20:18 50.08357 0.00409 25052 ft 393 kts 163°
2026-05-04 20:18 50.05722 0.01639 25435 ft 397 kts 165°
2026-05-04 20:19 50.03056 0.02778 25899 ft 398 kts 166°
2026-05-04 20:19 50.00381 0.03856 26349 ft 399 kts 166°
2026-05-04 20:19 49.97679 0.04913 26776 ft 401 kts 167°
2026-05-04 20:19 49.94968 0.05961 27193 ft 402 kts 167°
2026-05-04 20:20 49.92248 0.07011 27606 ft 404 kts 167°
2026-05-04 20:20 49.89516 0.08070 28011 ft 406 kts 167°
2026-05-04 20:20 49.86772 0.09138 28399 ft 407 kts 167°
2026-05-04 20:20 49.84018 0.10212 28783 ft 409 kts 167°
2026-05-04 20:21 49.81256 0.11290 29165 ft 411 kts 167°
2026-05-04 20:21 49.78488 0.12371 29548 ft 412 kts 167°
2026-05-04 20:21 49.72900 0.14550 30231 ft 415 kts 167°
2026-05-04 20:22 49.70096 0.15642 30565 ft 415 kts 167°
2026-05-04 20:22 49.67303 0.16738 31013 ft 413 kts 167°
2026-05-04 20:22 49.64532 0.17846 31467 ft 410 kts 167°
2026-05-04 20:22 49.61780 0.18957 31909 ft 407 kts 167°
2026-05-04 20:23 49.59047 0.20063 32326 ft 405 kts 167°
2026-05-04 20:23 49.56328 0.21162 32731 ft 403 kts 168°
2026-05-04 20:23 49.53620 0.22255 33120 ft 401 kts 168°
2026-05-04 20:23 49.50930 0.23337 33532 ft 398 kts 168°
2026-05-04 20:24 49.48266 0.24408 33997 ft 394 kts 168°
2026-05-04 20:24 49.45612 0.25471 34250 ft 394 kts 168°
2026-05-04 20:24 49.42948 0.26535 34373 ft 397 kts 168°
2026-05-04 20:24 49.40270 0.27604 34512 ft 399 kts 168°
2026-05-04 20:25 49.37574 0.28678 34682 ft 401 kts 168°
2026-05-04 20:25 49.34871 0.29755 34846 ft 402 kts 168°
2026-05-04 20:25 49.32196 0.30820 35004 ft 403 kts 168°
2026-05-04 20:25 49.29454 0.31935 35162 ft 405 kts 167°
2026-05-04 20:26 49.26725 0.33074 35376 ft 405 kts 167°
2026-05-04 20:26 49.24005 0.34224 35516 ft 406 kts 167°
2026-05-04 20:26 49.21273 0.35383 35632 ft 408 kts 167°
2026-05-04 20:26 49.18572 0.36528 35766 ft 409 kts 167°
2026-05-04 20:27 49.15821 0.37691 35907 ft 411 kts 167°
2026-05-04 20:27 49.13064 0.38852 36047 ft 412 kts 167°
2026-05-04 20:27 49.10294 0.40016 36183 ft 413 kts 167°
2026-05-04 20:27 49.07516 0.41180 36318 ft 414 kts 167°
2026-05-04 20:28 49.04736 0.42344 36520 ft 414 kts 166°
2026-05-04 20:28 49.01957 0.43505 36651 ft 415 kts 166°
2026-05-04 20:28 48.96366 0.45836 36866 ft 418 kts 167°
2026-05-04 20:29 48.93560 0.47005 36996 ft 419 kts 167°
2026-05-04 20:29 48.90745 0.48176 37122 ft 420 kts 167°
2026-05-04 20:29 48.87928 0.49347 37244 ft 420 kts 167°
2026-05-04 20:29 48.85102 0.50520 37362 ft 421 kts 167°
2026-05-04 20:30 48.82234 0.51709 37477 ft 422 kts 166°
2026-05-04 20:30 48.79393 0.52883 37594 ft 423 kts 167°
2026-05-04 20:30 48.76548 0.54031 37698 ft 424 kts 167°
2026-05-04 20:30 48.73769 0.55129 37816 ft 425 kts 167°
2026-05-04 20:31 48.67993 0.57382 37945 ft 427 kts 167°
2026-05-04 20:31 48.62238 0.59622 37949 ft 426 kts 167°
2026-05-04 20:32 48.56504 0.61856 37949 ft 425 kts 167°
2026-05-04 20:32 48.50778 0.64101 37947 ft 425 kts 167°
2026-05-04 20:33 48.45061 0.66417 37943 ft 425 kts 166°
2026-05-04 20:33 48.39355 0.68748 37941 ft 425 kts 167°
2026-05-04 20:34 48.33650 0.71068 37932 ft 424 kts 167°
2026-05-04 20:34 48.27951 0.73374 37940 ft 424 kts 167°
2026-05-04 20:35 48.22248 0.75657 37935 ft 424 kts 167°
2026-05-04 20:35 48.16544 0.77902 37937 ft 424 kts 167°
2026-05-04 20:36 48.10844 0.80135 37933 ft 423 kts 167°
2026-05-04 20:36 48.05191 0.82348 37931 ft 423 kts 167°
2026-05-04 20:37 47.99444 0.84595 37927 ft 423 kts 167°
2026-05-04 20:37 47.93752 0.86817 37921 ft 422 kts 167°
2026-05-04 20:38 47.88068 0.89030 37936 ft 422 kts 167°
2026-05-04 20:38 47.82384 0.91238 37939 ft 422 kts 167°
2026-05-04 20:39 47.76700 0.93441 37921 ft 422 kts 168°
2026-05-04 20:39 47.71032 0.95633 37930 ft 421 kts 168°
2026-05-04 20:40 47.65355 0.97822 37928 ft 421 kts 168°
2026-05-04 20:40 47.59677 1.00008 37930 ft 421 kts 168°
2026-05-04 20:41 47.54008 1.02185 37927 ft 421 kts 168°
2026-05-04 20:41 47.48345 1.04355 37927 ft 421 kts 168°
2026-05-04 20:42 47.42636 1.06128 37927 ft 418 kts 177°
2026-05-04 20:42 47.36848 1.06367 37927 ft 416 kts 182°
2026-05-04 20:43 47.31056 1.06243 37925 ft 416 kts 183°
2026-05-04 20:43 47.25264 1.06057 37927 ft 416 kts 182°
2026-05-04 20:44 47.19482 1.05895 37921 ft 416 kts 182°
2026-05-04 20:44 47.13693 1.05753 37921 ft 416 kts 182°
2026-05-04 20:45 47.07911 1.05620 37919 ft 415 kts 182°
2026-05-04 20:45 47.02130 1.05480 37916 ft 415 kts 183°
2026-05-04 20:46 46.96367 1.05257 37916 ft 415 kts 183°
2026-05-04 20:46 46.90578 1.04997 37917 ft 416 kts 183°
2026-05-04 20:47 46.84792 1.04739 37916 ft 416 kts 183°
2026-05-04 20:47 46.79062 1.04492 37918 ft 416 kts 183°
2026-05-04 20:48 46.73260 1.04246 37914 ft 416 kts 183°
2026-05-04 20:48 46.67477 1.04001 37914 ft 416 kts 183°
2026-05-04 20:49 46.61703 1.03757 37913 ft 416 kts 183°
2026-05-04 20:49 46.55908 1.03513 37909 ft 416 kts 183°
2026-05-04 20:50 46.50117 1.03974 37918 ft 420 kts 172°
2026-05-04 20:50 46.44378 1.05664 37917 ft 422 kts 169°
2026-05-04 20:51 46.38659 1.07597 37916 ft 422 kts 169°
2026-05-04 20:51 46.32943 1.09551 37916 ft 422 kts 169°
2026-05-04 20:52 46.27246 1.11468 37922 ft 421 kts 169°
2026-05-04 20:52 46.21517 1.13374 37920 ft 421 kts 170°
2026-05-04 20:53 46.15802 1.15266 37925 ft 421 kts 170°
2026-05-04 20:53 46.10116 1.17146 37929 ft 419 kts 170°
2026-05-04 20:54 46.04463 1.19011 37916 ft 418 kts 170°
2026-05-04 20:54 45.98785 1.20880 37934 ft 419 kts 170°
2026-05-04 20:55 45.93104 1.22748 37936 ft 418 kts 170°
2026-05-04 20:55 45.87447 1.24603 37939 ft 416 kts 171°
2026-05-04 20:56 45.82716 1.26152 37937 ft 416 kts 171°
2026-05-04 20:56 45.77102 1.27985 37938 ft 416 kts 171°
2026-05-04 20:57 45.71456 1.29826 37933 ft 416 kts 171°
2026-05-04 20:57 45.65814 1.31662 37937 ft 416 kts 171°
2026-05-04 20:58 45.60174 1.33493 37938 ft 416 kts 171°
2026-05-04 20:58 45.54532 1.35321 37935 ft 416 kts 171°
2026-05-04 20:59 45.48891 1.37144 37939 ft 416 kts 171°
2026-05-04 20:59 45.43247 1.38965 37940 ft 416 kts 171°
2026-05-04 21:00 45.37608 1.40781 37940 ft 416 kts 171°
2026-05-04 21:00 45.31970 1.42593 37946 ft 415 kts 171°
2026-05-04 21:01 45.26339 1.44399 37951 ft 415 kts 171°
2026-05-04 21:01 45.20705 1.46202 37957 ft 415 kts 171°
2026-05-04 21:02 45.15074 1.48000 37962 ft 415 kts 171°
2026-05-04 21:02 45.09448 1.49794 37966 ft 414 kts 171°
2026-05-04 21:03 45.03839 1.51578 37966 ft 414 kts 171°
2026-05-04 21:03 44.98200 1.53368 37921 ft 414 kts 171°
2026-05-04 21:04 44.92794 1.55080 37939 ft 414 kts 171°
2026-05-04 21:04 44.87173 1.56858 37939 ft 414 kts 171°
2026-05-04 21:05 44.81564 1.58629 37942 ft 414 kts 171°
2026-05-04 21:05 44.75917 1.60407 37941 ft 414 kts 171°
2026-05-04 21:06 44.70336 1.62161 37942 ft 414 kts 171°
2026-05-04 21:06 44.64664 1.63940 37944 ft 414 kts 171°
2026-05-04 21:07 44.59075 1.65690 37940 ft 414 kts 171°
2026-05-04 21:07 44.53444 1.67449 37947 ft 415 kts 171°
2026-05-04 21:08 44.47810 1.69206 37945 ft 415 kts 171°
2026-05-04 21:08 44.42209 1.70950 37944 ft 415 kts 171°
2026-05-04 21:09 44.36532 1.72713 37950 ft 415 kts 172°
2026-05-04 21:09 44.30896 1.74461 37949 ft 415 kts 172°
2026-05-04 21:10 44.25221 1.75949 37952 ft 414 kts 175°
2026-05-04 21:10 44.19534 1.77174 37950 ft 413 kts 175°
2026-05-04 21:11 44.13845 1.78376 37954 ft 414 kts 175°
2026-05-04 21:11 44.08155 1.79609 37955 ft 414 kts 175°
2026-05-04 21:12 44.02465 1.80859 37957 ft 414 kts 175°
2026-05-04 21:12 43.96774 1.82110 37958 ft 415 kts 175°
2026-05-04 21:13 43.91044 1.82990 37957 ft 414 kts 179°
2026-05-04 21:13 43.85301 1.83501 37969 ft 413 kts 180°
2026-05-04 21:14 43.79557 1.83983 37988 ft 414 kts 180°
2026-05-04 21:14 43.73791 1.84511 37967 ft 416 kts 180°
2026-05-04 21:15 43.68057 1.85063 37988 ft 416 kts 179°
2026-05-04 21:15 43.62285 1.85624 37992 ft 416 kts 179°
2026-05-04 21:16 43.56506 1.86183 37984 ft 416 kts 180°
2026-05-04 21:16 43.50722 1.86740 37987 ft 417 kts 180°
2026-05-04 21:17 43.44939 1.87295 37986 ft 417 kts 180°
2026-05-04 21:17 43.39157 1.87849 37980 ft 417 kts 180°
2026-05-04 21:18 43.33373 1.88403 37988 ft 417 kts 180°
2026-05-04 21:18 43.27589 1.88956 37994 ft 416 kts 180°
2026-05-04 21:19 43.21809 1.89509 37993 ft 417 kts 180°
2026-05-04 21:19 43.16031 1.90061 37988 ft 416 kts 180°
2026-05-04 21:20 43.10246 1.90612 37989 ft 417 kts 180°
2026-05-04 21:20 43.04505 1.91157 37982 ft 416 kts 180°
2026-05-04 21:21 42.98705 1.91707 37967 ft 414 kts 180°
2026-05-04 21:21 42.92988 1.92248 37986 ft 415 kts 180°
2026-05-04 21:22 42.87229 1.92792 37987 ft 415 kts 180°
2026-05-04 21:22 42.81462 1.93336 37985 ft 415 kts 180°
2026-05-04 21:23 42.75706 1.93878 37979 ft 415 kts 180°
2026-05-04 21:23 42.69944 1.94421 37967 ft 415 kts 180°
2026-05-04 21:24 42.64228 1.95801 37973 ft 419 kts 171°
2026-05-04 21:24 42.58557 1.97758 37965 ft 421 kts 170°
2026-05-04 21:25 42.52886 1.99828 37955 ft 423 kts 170°
2026-05-04 21:25 42.47207 2.01896 37954 ft 422 kts 170°
2026-05-04 21:26 42.41527 2.03942 37946 ft 422 kts 170°
2026-05-04 21:26 42.35843 2.05975 37951 ft 423 kts 171°
2026-05-04 21:27 42.30154 2.07998 37939 ft 423 kts 170°
2026-05-04 21:27 42.24462 2.10018 37944 ft 423 kts 171°
2026-05-04 21:28 42.18774 2.12033 37950 ft 423 kts 171°
2026-05-04 21:28 42.13083 2.14046 37937 ft 422 kts 171°
2026-05-04 21:29 42.07405 2.16050 37946 ft 422 kts 171°
2026-05-04 21:29 42.01725 2.18051 37941 ft 422 kts 171°
2026-05-04 21:30 41.96048 2.20048 37924 ft 422 kts 171°
2026-05-04 21:30 41.90377 2.22037 37948 ft 422 kts 171°
2026-05-04 21:31 41.81841 2.25028 37951 ft 422 kts 171°
2026-05-04 21:32 41.76156 2.27016 37952 ft 422 kts 171°
2026-05-04 21:32 41.70469 2.29002 37957 ft 423 kts 171°
2026-05-04 21:33 41.64777 2.30987 37957 ft 422 kts 171°
2026-05-04 21:33 41.59097 2.32965 37959 ft 422 kts 171°
2026-05-04 21:34 41.53419 2.34937 37932 ft 422 kts 172°
2026-05-04 21:34 41.47789 2.36889 37953 ft 423 kts 172°
2026-05-04 21:35 41.42077 2.38866 37955 ft 423 kts 172°
2026-05-04 21:35 41.36381 2.40834 37959 ft 423 kts 172°
2026-05-04 21:36 41.30688 2.42798 37939 ft 423 kts 172°
2026-05-04 21:36 41.24981 2.44763 37949 ft 424 kts 172°
2026-05-04 21:37 41.19280 2.46722 37948 ft 424 kts 172°
2026-05-04 21:37 41.13553 2.48684 37944 ft 424 kts 172°
2026-05-04 21:38 41.07826 2.50539 37940 ft 424 kts 173°
2026-05-04 21:38 41.02093 2.52382 37940 ft 424 kts 173°
2026-05-04 21:39 40.96359 2.54232 37935 ft 424 kts 173°
2026-05-04 21:39 40.90628 2.56078 37943 ft 424 kts 173°
2026-05-04 21:40 40.84915 2.57915 37943 ft 424 kts 173°
2026-05-04 21:40 40.79152 2.59764 37948 ft 425 kts 173°
2026-05-04 21:41 40.73410 2.61604 37948 ft 425 kts 173°
2026-05-04 21:41 40.67633 2.63448 37370 ft 431 kts 173°
2026-05-04 21:41 40.64697 2.64384 36566 ft 436 kts 173°
2026-05-04 21:42 40.61754 2.65322 35857 ft 439 kts 173°
2026-05-04 21:42 40.58778 2.66273 35387 ft 436 kts 173°
2026-05-04 21:42 40.55826 2.67215 34709 ft 437 kts 173°
2026-05-04 21:42 40.52867 2.68157 34115 ft 438 kts 173°
2026-05-04 21:43 40.50909 2.68780 33724 ft 436 kts 173°
2026-05-04 21:43 40.47974 2.69715 33053 ft 432 kts 173°
2026-05-04 21:43 40.45068 2.70639 32456 ft 428 kts 173°
2026-05-04 21:43 40.42191 2.71554 31903 ft 422 kts 173°
2026-05-04 21:44 40.39350 2.72456 31294 ft 419 kts 173°
2026-05-04 21:44 40.36534 2.73347 30680 ft 414 kts 173°
2026-05-04 21:44 40.33752 2.74228 30085 ft 409 kts 173°
2026-05-04 21:44 40.30996 2.75099 29366 ft 405 kts 173°
2026-05-04 21:45 40.28292 2.75953 28665 ft 401 kts 173°
2026-05-04 21:45 40.25589 2.76807 28232 ft 391 kts 174°
2026-05-04 21:45 40.22975 2.77635 27772 ft 383 kts 174°
2026-05-04 21:45 40.20394 2.78447 27032 ft 380 kts 174°
2026-05-04 21:46 40.17830 2.79252 26314 ft 377 kts 174°
2026-05-04 21:46 40.15287 2.80050 25584 ft 375 kts 174°
2026-05-04 21:46 40.12751 2.80844 24778 ft 375 kts 174°
2026-05-04 21:46 40.10204 2.81641 23917 ft 378 kts 174°
2026-05-04 21:47 40.07647 2.82441 22988 ft 379 kts 174°
2026-05-04 21:47 40.05093 2.83240 22005 ft 380 kts 174°
2026-05-04 21:47 40.02513 2.84049 21046 ft 380 kts 173°
2026-05-04 21:47 39.99935 2.84857 20120 ft 379 kts 173°
2026-05-04 21:48 39.97373 2.85659 19219 ft 378 kts 173°
2026-05-04 21:48 39.94821 2.86457 18342 ft 377 kts 173°
2026-05-04 21:48 39.92291 2.87248 17392 ft 375 kts 173°
2026-05-04 21:48 39.89752 2.88041 16424 ft 373 kts 172°
2026-05-04 21:49 39.87243 2.88824 15546 ft 369 kts 172°
2026-05-04 21:49 39.84756 2.89600 14695 ft 366 kts 172°
2026-05-04 21:49 39.82290 2.90369 13871 ft 363 kts 171°
2026-05-04 21:49 39.79901 2.91113 12974 ft 359 kts 171°
2026-05-04 21:50 39.77441 2.91887 12060 ft 355 kts 169°
2026-05-04 21:50 39.75182 2.93231 11179 ft 362 kts 149°
2026-05-04 21:50 39.73425 2.95574 10504 ft 364 kts 127°
2026-05-04 21:50 39.72425 2.98570 9884 ft 362 kts 105°
2026-05-04 21:51 39.72309 3.01804 9223 ft 358 kts 83°
2026-05-04 21:51 39.73080 3.04826 8563 ft 351 kts 60°
2026-05-04 21:51 39.74591 3.07200 7905 ft 341 kts 37°
2026-05-04 21:51 39.76604 3.08659 7345 ft 327 kts 17°
2026-05-04 21:52 39.78719 3.09527 7044 ft 310 kts 12°
2026-05-04 21:52 39.80742 3.10268 6985 ft 294 kts 12°
2026-05-04 21:52 39.82691 3.10978 6982 ft 289 kts 12°
2026-05-04 21:52 39.84624 3.11682 6974 ft 291 kts 12°
2026-05-04 21:53 39.86581 3.12394 6978 ft 291 kts 12°
2026-05-04 21:53 39.88517 3.13098 6977 ft 291 kts 12°
2026-05-04 21:53 39.90485 3.13815 6973 ft 291 kts 12°
2026-05-04 21:53 39.92436 3.14526 6973 ft 291 kts 12°
2026-05-04 21:54 39.94387 3.15235 6972 ft 291 kts 12°
2026-05-04 21:54 39.96341 3.15943 6969 ft 292 kts 12°
2026-05-04 21:54 39.98290 3.16675 6970 ft 292 kts 17°
2026-05-04 21:54 40.00023 3.18068 6942 ft 296 kts 43°
2026-05-04 21:55 40.01158 3.20211 6584 ft 298 kts 68°
2026-05-04 21:55 40.01506 3.22919 6147 ft 295 kts 96°
2026-05-04 21:55 40.00952 3.25408 5732 ft 289 kts 123°
2026-05-04 21:55 39.99629 3.27318 5309 ft 279 kts 150°
2026-05-04 21:56 39.97857 3.28199 4877 ft 268 kts 178°
2026-05-04 21:56 39.96042 3.27985 4472 ft 260 kts 198°
2026-05-04 21:56 39.94318 3.27321 4108 ft 256 kts 201°
2026-05-04 21:56 39.92637 3.26604 4000 ft 254 kts 202°
2026-05-04 21:57 39.90954 3.25881 4007 ft 255 kts 202°
2026-05-04 21:57 39.89265 3.25154 4000 ft 256 kts 202°
2026-05-04 21:57 39.87585 3.24426 3998 ft 249 kts 202°
2026-05-04 21:57 39.86005 3.23747 4013 ft 232 kts 202°
2026-05-04 21:58 39.84481 3.23095 4013 ft 229 kts 204°
2026-05-04 21:58 39.83095 3.22103 3999 ft 228 kts 219°
2026-05-04 21:58 39.81840 3.20833 4007 ft 229 kts 221°
2026-05-04 21:58 39.80607 3.19525 3999 ft 228 kts 222°
2026-05-04 21:59 39.79381 3.18216 3706 ft 228 kts 222°
2026-05-04 21:59 39.78160 3.16915 3399 ft 226 kts 222°
2026-05-04 21:59 39.76965 3.15639 3124 ft 222 kts 222°
2026-05-04 21:59 39.75778 3.14371 3008 ft 219 kts 222°
2026-05-04 22:00 39.74660 3.13038 3003 ft 217 kts 229°
2026-05-04 22:00 39.73693 3.11543 3009 ft 216 kts 234°
2026-05-04 22:00 39.72832 3.10024 3005 ft 200 kts 236°
2026-05-04 22:00 39.72089 3.08620 3041 ft 182 kts 236°
2026-05-04 22:01 39.71340 3.07282 3017 ft 182 kts 234°
2026-05-04 22:01 39.70565 3.05965 3012 ft 185 kts 235°
2026-05-04 22:01 39.69825 3.04596 3011 ft 186 kts 236°
2026-05-04 22:01 39.69078 3.03240 3010 ft 188 kts 235°
2026-05-04 22:02 39.68321 3.01876 3011 ft 187 kts 236°
2026-05-04 22:02 39.67573 3.00512 3007 ft 179 kts 236°
2026-05-04 22:02 39.66883 2.99252 3009 ft 167 kts 236°
2026-05-04 22:02 39.66219 2.98021 3020 ft 166 kts 236°
2026-05-04 22:03 39.65538 2.96811 3013 ft 167 kts 232°
2026-05-04 22:03 39.64753 2.95701 3016 ft 166 kts 230°
2026-05-04 22:03 39.64077 2.94567 3033 ft 153 kts 238°
2026-05-04 22:03 39.63539 2.93371 3016 ft 154 kts 241°
2026-05-04 22:04 39.63010 2.92159 3013 ft 153 kts 241°
2026-05-04 22:04 39.62492 2.91002 2797 ft 145 kts 240°
2026-05-04 22:04 39.62006 2.89938 2591 ft 129 kts 239°
2026-05-04 22:04 39.61562 2.88976 2323 ft 122 kts 239°
2026-05-04 22:05 39.61135 2.88041 2063 ft 120 kts 237°
2026-05-04 22:05 39.60689 2.87097 2022 ft 125 kts 237°
2026-05-04 22:05 39.60240 2.86147 1898 ft 123 kts 238°
2026-05-04 22:05 39.59799 2.85207 1633 ft 121 kts 237°
2026-05-04 22:06 39.59360 2.84272 1471 ft 122 kts 238°
2026-05-04 22:06 39.58914 2.83323 1305 ft 125 kts 238°
2026-05-04 22:06 39.58461 2.82361 1140 ft 125 kts 238°
2026-05-04 22:06 39.58007 2.81398 965 ft 126 kts 237°
2026-05-04 22:07 39.57547 2.80420 778 ft 129 kts 237°
2026-05-04 22:07 39.57072 2.79413 613 ft 131 kts 238°
2026-05-04 22:07 39.56596 2.78402 419 ft 132 kts 238°
2026-05-04 22:07 39.56120 2.77395 278 ft 134 kts 238°
2026-05-04 22:08 39.55635 2.76372 120 ft 134 kts 238°
2026-05-04 22:08 39.55151 2.75350 39 ft 127 kts 238°
2026-05-04 22:08 39.54777 2.74559 34 ft 65 kts 239°
2026-05-04 22:08 39.54592 2.74151 37 ft 49 kts 242°
2026-05-04 22:09 39.54547 2.73876 37 ft 10 kts 268°
2026-05-04 22:09 39.54547 2.73865 37 ft 0 kts 271°
2026-05-04 22:10 39.54548 2.73831 37 ft 8 kts 271°
2026-05-04 22:10 39.54554 2.73722 38 ft 16 kts 285°
2026-05-04 22:11 39.54616 2.73595 38 ft 14 kts 269°
2026-05-04 22:11 39.54657 2.73502 39 ft 9 kts 268°
2026-05-04 22:11 39.54652 2.73440 39 ft 0 kts 255°